User: anonymous   Login
Location: ???????
(55.2903°N, 39.1554°E)
Time: 18:36:58
(UTC+00:00)
Language:

ATLAS 5 CENTAUR R/B - Orbit

View from above orbital plane
View from above orbital plane
View from above satellite
View from above satellite

Ground track
Ground track

The orbit data is extracted from the following two-line orbital elements,

1 31702U 07027B   24165.70851127  .00005619  00000-0  48791-3 0  9991
2 31702  63.3299 303.4316 0522171  32.6258 330.5958 14.29473786  5033
Epoch (UTC): 13 June 2024 17:00:15
Eccentricity: 0.0522171
inclination: 63.3299°
perigee height: 419 km
apogee height: 1168 km
right ascension of ascending node: 303.4316°
argument of perigee: 32.6258°
revolutions per day: 14.29473786
mean anomaly at epoch: 330.5958°
orbit number at epoch: 503

The dashed part of the orbit path shows where the satellite is in the earth's shadow,  

DLR